STARLINK-11210, 60116

Orbit data source: Space-Track

STARLINK-11210, 60116 is a payload satellite owned by SpaceX/Seattle (US) in LEO that was launched on Mon, 24 Jun 2024 UTC via an FALCON 9 launch vehicle from the Air Force Western Test Range (AFWTR). Payload-class satellites include a variety of spacecraft equipped with specific instruments for various scientific and technological missions. These include communications satellites like Starlink; space stations such as the ISS; scientific satellites like the Hubble; Earth observation satellites from companies like Planet Labs, Umbra, and HawkEye 360; GPS; miniature CubeSats for education and research; and military/defense satellites.

Loading next visibility...
Identifier
60116, 2024-118D
Orbit
LEO
Country
Flag of USUS
Related business
Manufacturer
SpaceX/Seattle
Mission
Operational Commercial Communications
Bus & Motor
STARLINK V2MD, Unknown motor
Mass
960 kg wet, ~910 kg dry
Launch date (UTC)
2024-06-24 (2 years ago)
Launch vehicle
FALCON 9
Launch site
Air Force Western Test Range (AFWTR)
Object type
Payload
Rocket body
Debris
Shape & HBR
Box + 2 Pan, 18.1 m
Radar Cross Section
36.964 m², Large (>1 m²)

Expand to show TLE details & history
Last TLE update: 7 hours ago

TLE from 7 hours ago
0 STARLINK-11210
1 60116U 24118D   26035.21427657 -.00002495  00000-0 -15740-4 0  9993
2 60116  53.1580  26.4285 0001644  51.0866 309.0299 15.69695732 92732
Epoch: 2026-02-04T05:08Z
TLE epoch observation values (Epoch: 2026-02-04T05:08:33.495Z)
Latitude
0.00003°
Longitude
174.90489°
Altitude
359.985 km
Speed
7.695 km/s
True Right ascension
01h 45m 42s
True Declination
0° 00' 00"
Sunlit
Object was in daylight at epoch
Visualization orbit readout
Latitude
Unknown
Longitude
Unknown
Altitude
Unknown
Speed
Unknown
Apparent Right ascension
Unknown
Apparent Declination
Unknown
Sunlit
N/A
Visualization observer readout
Local Sidereal Time
13:50:43
Azimuth
Unknown
Elevation
Unknown
Doppler factor
Unknown
Orbital elements
Apogee altitude
361.136 km
Perigee altitude
358.921 km
Semi-major axis
6,738.166 km
Eccentricity
0.00016
Inclination
53.158°
RAAN
26.4285°
Arg. of periapsis
51.0866°
True anomaly
309.01526°
Mean anomaly
309.0299°
Eccentric anomaly
309.02258°
Mean motion
3.92401 °/min
Orbital period
91.74 mins
BSTAR
-0.00001574
Loading maneuver chart data...
Computing Atmospheric mass density...
Loading historical data...
Loading historical data...
Loading historical data...
Loading historical data...
Loading historical data...
Loading historical data...
Loading historical data...

Documentation

Showing up to 5 results
|